FW8060 Weather Reports


Display with metric or nautical units.
time (UTC)temp
F
wind
direction
speed
MPH
gust
MPH
rain 1hr
in
rain 24hr
in
rain mn
in
humidity
%
barometer
mb
20260901233636 59 167 3.0 6.0 0.00 0.00 0.00 85 1020.7
20260901231712 59 186 2.0 6.0 0.00 0.00 0.00 85 1020.9
20260901230712 59 175 3.0 6.0 0.00 0.00 0.00 85 1021.0
20260901225717 58 185 2.0 6.0 0.00 0.00 0.00 85 1021.0
20260901224719 58 193 1.0 4.0 0.00 0.00 0.00 84 1021.0
20260901223714 58 193 2.0 4.0 0.00 0.00 0.00 84 1021.0
20260901222709 58 193 2.0 3.0 0.00 0.00 0.00 83 1021.1
20260901221715 59 193 2.0 4.0 0.00 0.00 0.00 83 1021.0
20260901220710 59 226 2.0 5.0 0.00 0.00 0.00 83 1021.2
20260901215709 59 206 2.0 5.0 0.00 0.00 0.00 83 1021.2
20260901214709 59 184 1.0 4.0 0.00 0.00 0.00 82 1021.3
20260901214557 60 184 1.0 5.0 0.00 0.00 0.00 82 1021.2
20260901212717 60 211 2.0 5.0 0.00 0.00 0.00 81 1021.3
20260901211715 60 208 1.0 4.0 0.00 0.00 0.00 80 1021.4
20260901210705 60 175 1.0 4.0 0.00 0.00 0.00 80 1021.2
20260901205703 60 187 1.0 7.0 0.00 0.00 0.00 80 1021.3
20260901204704 61 196 1.0 6.0 0.00 0.00 0.00 80 1021.4
20260901203704 61 250 1.0 3.0 0.00 0.00 0.00 80 1021.3
20260901202708 62 250 1.0 4.0 0.00 0.00 0.00 79 1021.5
20260901201711 62 214 1.0 2.0 0.00 0.00 0.00 79 1021.4
20260901200703 62 231 1.0 3.0 0.00 0.00 0.00 79 1021.4
20260901195704 62 298 1.0 2.0 0.00 0.00 0.00 79 1021.3
20260901194705 62 298 1.0 2.0 0.00 0.00 0.00 79 1021.3
20260901193702 62 298 0.0 2.0 0.00 0.00 0.00 78 1021.1
20260901192701 63 298 0.0 1.0 0.00 0.00 0.00 76 1021.1
20260901191701 63 298 0.0 0.0 0.00 0.00 0.00 77 1021.2
20260901190701 63 298 0.0 1.0 0.00 0.00 0.00 76 1021.1
20260901185703 64 298 0.0 1.0 0.00 0.00 0.00 74 1021.0
20260901184707 64 298 0.0 2.0 0.00 0.00 0.00 74 1021.0
20260901183704 64 298 1.0 2.0 0.00 0.00 0.00 73 1020.9
20260901182703 64 298 0.0 3.0 0.00 0.00 0.00 73 1020.7
20260901181703 65 323 1.0 4.0 0.00 0.00 0.00 72 1020.7
20260901180659 65 267 1.0 4.0 0.00 0.00 0.00 71 1020.6
20260901180610 66 343 2.0 5.0 0.00 0.00 0.00 69 1020.6
20260901175606 67 299 2.0 5.0 0.00 0.00 0.00 68 1020.7
20260901173700 67 321 3.0 6.0 0.00 0.00 0.00 66 1020.6
20260901172659 68 298 3.0 8.0 0.00 0.00 0.00 65 1020.6
20260901171704 69 259 3.0 7.0 0.00 0.00 0.00 65 1020.8
20260901170701 70 281 3.0 6.0 0.00 0.00 0.00 61 1020.7
20260901165701 69 269 3.0 9.0 0.00 0.00 0.00 59 1020.7
20260901164700 70 250 4.0 9.0 0.00 0.00 0.00 58 1020.7
20260901163659 69 246 3.0 9.0 0.00 0.00 0.00 58 1020.7
20260901162703 71 269 5.0 11.0 0.00 0.00 0.00 56 1020.7
20260901161657 71 258 3.0 10.0 0.00 0.00 0.00 56 1020.6
20260901160658 71 191 4.0 8.0 0.00 0.01 0.00 56 1020.7
20260901160625 71 264 4.0 10.0 0.00 0.01 0.00 56 1020.5
20260901154700 71 254 3.0 7.0 0.00 0.01 0.00 57 1020.5
20260901154151 70 258 4.0 9.0 0.00 0.01 0.00 59 1020.5
20260901152657 71 229 4.0 9.0 0.00 0.01 0.00 58 1020.4
20260901151700 72 261 5.0 11.0 0.00 0.01 0.00 56 1020.5
20260901150657 73 186 5.0 11.0 0.00 0.01 0.00 56 1020.3
20260901145935 72 333 4.0 10.0 0.00 0.01 0.00 60 1020.5
20260901145707 71 274 2.0 10.0 0.00 0.01 0.00 60 1020.5
20260901144657 70 259 3.0 9.0 0.00 0.01 0.00 61 1020.5
20260901142659 72 248 5.0 10.0 0.00 0.01 0.00 59 1020.5
20260901141656 73 305 3.0 11.0 0.00 0.01 0.00 56 1020.6
20260901140655 73 275 3.0 7.0 0.00 0.01 0.00 57 1020.6
20260901135653 73 229 3.0 11.0 0.00 0.01 0.00 59 1020.6
20260901134652 71 242 4.0 8.0 0.00 0.01 0.00 62 1020.8
20260901133659 72 227 3.0 9.0 0.00 0.01 0.00 60 1020.8
20260901132658 72 286 4.0 10.0 0.00 0.01 0.00 60 1020.6
20260901131652 71 310 5.0 10.0 0.00 0.01 0.00 60 1020.8
20260901130655 71 285 6.0 13.0 0.00 0.02 0.00 62 1020.9
20260901125648 71 321 5.0 12.0 0.00 0.02 0.00 63 1020.8
20260901124652 71 290 4.0 11.0 0.00 0.02 0.00 62 1021.0
20260901123654 70 254 3.0 8.0 0.00 0.02 0.00 66 1020.9
20260901123616 70 264 3.0 7.0 0.00 0.02 0.00 66 1021.0
20260901121646 70 275 3.0 9.0 0.00 0.02 0.00 66 1021.0
20260901121639 69 289 5.0 11.0 0.00 0.02 0.00 66 1021.0
20260901115643 70 267 5.0 10.0 0.00 0.02 0.00 66 1020.9
20260901114640 69 266 5.0 11.0 0.00 0.02 0.00 67 1021.0
20260901113640 69 271 5.0 14.0 0.00 0.02 0.00 67 1021.0
20260901112644 70 291 5.0 13.0 0.00 0.02 0.00 66 1021.1
20260901111644 70 241 3.0 9.0 0.00 0.02 0.00 66 1021.1
20260901110644 70 288 5.0 10.0 0.00 0.02 0.00 65 1021.1
20260901105646 70 261 6.0 14.0 0.00 0.02 0.00 65 1021.1
20260901104647 71 311 5.0 11.0 0.00 0.03 0.00 64 1021.0
20260901103654 69 277 5.0 10.0 0.00 0.03 0.00 66 1020.9
20260901102645 68 273 4.0 10.0 0.00 0.03 0.00 70 1020.9
20260901102117 69 254 5.0 11.0 0.00 0.03 0.00 68 1020.7
20260901100643 69 254 4.0 10.0 0.00 0.03 0.00 67 1020.9
20260901095638 69 291 5.0 11.0 0.00 0.03 0.00 69 1020.9
20260901094640 68 322 4.0 11.0 0.00 0.03 0.00 71 1020.9
20260901093638 67 288 3.0 7.0 0.00 0.03 0.00 72 1020.9
20260901092639 67 300 4.0 9.0 0.00 0.03 0.00 74 1020.9
20260901091636 68 245 3.0 8.0 0.00 0.03 0.00 74 1020.9
20260901090655 67 315 4.0 8.0 0.00 0.03 0.00 75 1020.6
20260901090638 67 175 3.0 8.0 0.00 0.03 0.00 74 1020.7
20260901084639 67 292 3.0 8.0 0.00 0.03 0.00 77 1020.6
20260901083815 67 271 3.0 8.0 0.00 0.03 0.00 79 1020.5
20260901083646 66 306 4.0 11.0 0.00 0.03 0.00 77 1020.6
20260901081637 66 302 3.0 7.0 0.00 0.03 0.00 80 1020.4
20260901080722 65 267 3.0 7.0 0.00 0.04 0.00 84 1020.3
20260901080638 66 286 3.0 7.0 0.00 0.03 0.00 82 1020.5
20260901074642 65 257 2.0 7.0 0.00 0.07 0.00 85 1020.1
20260901073816 62 250 2.0 8.0 0.00 0.19 0.00 93 1019.9
20260901073645 64 263 2.0 6.0 0.00 0.09 0.00 87 1020.0
20260901072632 63 260 2.0 7.0 0.00 0.11 0.00 91 1020.0
20260901070741 61 226 2.0 4.0 0.00 0.28 0.00 94 1019.7
20260901070634 61 224 2.0 6.0 0.00 0.20 0.00 94 1019.8
20260901065840 61 240 2.0 4.0 0.00 0.28 0.00 94 1019.7
20260901063633 61 223 2.0 5.0 0.00 0.28 0.00 95 1019.6
20260901062629 60 220 1.0 4.0 0.00 0.28 0.00 95 1019.6
20260901062536 60 232 2.0 5.0 0.00 0.29 0.00 95 1019.5
20260901061527 60 200 2.0 5.0 0.00 0.29 0.00 96 1019.4
20260901055631 60 180 2.0 6.0 0.00 0.29 0.00 95 1019.4
20260901055308 60 227 1.0 3.0 0.00 0.31 0.00 95 1018.9
20260901054655 60 236 1.0 4.0 0.00 0.29 0.00 95 1019.2
20260901053753 60 208 1.0 3.0 0.00 0.31 0.00 95 1019.2
20260901053656 60 220 2.0 4.0 0.00 0.31 0.00 95 1019.1
20260901053627 60 236 1.0 4.0 0.00 0.31 0.00 96 1019.1
20260901050827 59 220 2.0 4.0 0.00 0.31 0.00 95 1019.1
20260901045456 60 227 1.0 5.0 0.00 0.31 0.00 95 1018.9
20260901043614 60 226 2.0 4.0 0.00 0.31 0.00 95 1018.9
20260901042620 60 221 1.0 3.0 0.00 0.31 0.00 95 1018.8
20260901041626 60 221 2.0 5.0 0.00 0.31 0.00 95 1018.6
20260901040623 60 249 2.0 5.0 0.00 0.31 0.00 95 1018.6
20260901035620 60 227 2.0 5.0 0.00 0.31 0.00 95 1018.5
20260901034616 60 227 1.0 5.0 0.00 0.31 0.00 95 1018.4
20260901033618 60 187 2.0 5.0 0.00 0.31 0.00 95 1018.1
20260901032621 60 187 2.0 5.0 0.00 0.31 0.00 95 1018.2
20260901031617 60 186 1.0 4.0 0.00 0.31 0.00 95 1018.2
20260901030614 60 207 1.0 4.0 0.00 0.31 0.00 95 1018.2
20260901025615 61 230 1.0 4.0 0.00 0.31 0.00 95 1018.2
20260901024611 61 228 2.0 5.0 0.00 0.31 0.00 95 1018.1
20260901023611 61 226 3.0 7.0 0.00 0.31 0.00 95 1018.0
20260901022613 61 169 3.0 9.0 0.00 0.31 0.00 95 1018.2
20260901021615 61 202 2.0 5.0 0.00 0.31 0.00 95 1018.2
20260901020618 61 211 2.0 7.0 0.00 0.31 0.00 95 1018.1
20260901015623 61 233 2.0 6.0 0.00 0.31 0.00 95 1018.0
20260901015506 61 221 3.0 7.0 0.00 0.31 0.00 95 1018.1
20260901013623 61 192 3.0 7.0 0.00 0.31 0.00 94 1018.1
20260901012615 61 269 3.0 7.0 0.00 0.31 0.00 94 1018.1
20260901011613 62 233 3.0 7.0 0.00 0.31 0.00 94 1018.0
20260901010622 62 180 3.0 7.0 0.00 0.31 0.00 94 1018.0
20260901005614 62 236 2.0 6.0 0.00 0.31 0.00 93 1017.8
20260901004612 62 229 3.0 8.0 0.00 0.31 0.00 93 1017.9
20260901003613 62 267 3.0 6.0 0.00 0.31 0.00 93 1017.9
20260901002611 62 254 3.0 8.0 0.00 0.31 0.00 93 1018.0
20260901001619 62 190 3.0 8.0 0.00 0.31 0.00 93 1018.1
20260901000612 62 226 3.0 8.0 0.00 0.31 0.00 93 1018.0
20260831235611 62 201 3.0 8.0 0.00 0.31 0.00 93 1018.0
20260831234613 62 227 2.0 5.0 0.00 0.31 0.00 92 1018.0